Погода в Вязниках

Россия / Ставропольский край     45°06′37″N   41°58′31″E
темп.,
°C
ветер,
м/с
пор.,
м/с
влажн.,
%
обл.,
%
осадки,
мм/ч
давл.,
гПа
погр.,
м
15 апреля, чт
чт1500:00+6з119082 0.0 101810
03:00+6юз118840 0.0 101810
06:00+6ю118588 0.0 101810
09:00+12ююв11635 0.0 1018413
12:00+16сз2344100 0.0 10161623
15:00+16ссз3347100 0.0 10161660
18:00+14ссв236488 0.0 101749
21:00+10всв1172100 0.0 101810
16 апреля, пт
пт1600:00+9юв007519 0.0 101810
03:00+8вюв227955 0.0 101810
06:00+8вюв1180100 0.0 101910
09:00+14вюв356372 0.0 1018504
12:00+17вюв565146 0.0 10171409
15:00+19вюв564767 0.0 10162133
18:00+11с2395100 8.7 1019278
21:00+10сз2296100 8.9 1020112
17 апреля, сб
сб1700:00+9ссв1196100 0.1 102042
03:00+9ссз2397100 0.4 1019192
06:00+9зсз4997100 3.8 1021660
09:00+8з3893100 6.7 1023497
12:00+9зюз2387100 1.3 1023370
15:00+10з2282100 1.4 1023489
18:00+9юз1287100 0.6 1023239
21:00+8ю1191100 0.7 102316
18 апреля, вс
вс1800:00+8вюв1190100 0.0 102217
03:00+8вюв2390100 0.0 102163
06:00+8в3892100 0.0 1020294
09:00+9вюв51090100 0.1 1018489
12:00+12в7108497 0.2 1015651
15:00+13всв5785100 0.5 1016567
18:00+12в479397 0.4 1016325
21:00+11юв269595 0.6 1017184
19 апреля, пн
пн1900:00+11ююв2295100 0.0 101634
03:00+10юз1191100 0.0 101610
06:00+10сз1192100 0.0 101610
09:00+14сз1181100 0.0 1016346
12:00+15св338398 0.3 1015407
15:00+16всв4476100 0.3 1014863
18:00+14всв5987100 0.1 1013466
21:00+12в51397100 0.7 1011412